Back to catalog

USA 223

AliveMilitaryGEO
NORAD 37232·PAYLOAD·🇺🇸 United States

Launched Nov 21, 2010 from Cape Canaveral Space Force Station

Loading…

TLE

FreshSource: Mike McCants

Epoch: Sep 14, 2026, 23:22 UTC

1 37232U 10063A   26257.97422611  .00000000  00000-0  00000-0 0    04
2 37232   9.6457  80.5758 0024461 254.9275 104.8094  1.00270000 18335

Track USA 223 in real time with AllMySat

Download on the App Store